PEGASUS DEB, 24602

Orbit data source: Space-Track

PEGASUS DEB, 24602 is space debris in LEO originally from a launch on Thu, 19 May 1994 UTC launched from the Air Force Western Test Range (AFWTR). Debris objects in space refer to the collection of defunct objects orbiting the Earth. Examples of debris include non-operational satellites, rocket bodies, and fragments generated from explosions, collisions, or faulty payload assembly.

Loading next visibility...
Identifier
24602, 1994-029ZE
Orbit
LEO
Country
Flag of USUS
Related business
Manufacturer
Unknown
Mission
Spacecraft
Bus & Motor
Unknown
Mass
Unknown
Launch date (UTC)
1994-05-19 (32 years ago)
Launch vehicle
Unknown
Launch site
Air Force Western Test Range (AFWTR)
Object type
Payload
Rocket body
Debris
Shape & HBR
Unknown shape, 0.1 m
Radar Cross Section
Medium (>0.1 m² and <1 m²)

Expand to show TLE details & history
Last TLE update: 1 day ago

TLE from 1 day ago
0 PEGASUS DEB
1 24602U 94029ZE  26175.29207724  .00001529  00000-0  49187-3 0  9991
2 24602  81.5232 186.3626 0726683 348.5036  10.0232 13.45268457446423
Epoch: 2026-06-24T07:00Z
TLE epoch observation values (Epoch: 2026-06-24T07:00:35.473Z)
Latitude
Longitude
168.76341°
Altitude
559.406 km
Speed
7.848 km/s
True Right ascension
12h 25m 27s
True Declination
0° 00' 00"
Sunlit
Object was in daylight at epoch
Visualization orbit readout
Latitude
Unknown
Longitude
Unknown
Altitude
Unknown
Speed
Unknown
Apparent Right ascension
Unknown
Apparent Declination
Unknown
Sunlit
N/A
Visualization observer readout
Local Sidereal Time
01:42:00
Azimuth
Unknown
Elevation
Unknown
Doppler factor
Unknown
Orbital elements
Apogee altitude
1,629.42 km
Perigee altitude
544.47 km
Semi-major axis
7,465.082 km
Eccentricity
0.07267
Inclination
81.5232°
RAAN
186.3626°
Arg. of periapsis
348.5036°
True anomaly
11.61406°
Mean anomaly
10.0232°
Eccentric anomaly
10.80364°
Mean motion
3.36505 °/min
Orbital period
106.98 mins
BSTAR
0.00049187
Loading maneuver chart data...
Computing Atmospheric mass density...

Documentation

Showing up to 5 results
|